TimeEDT,TemperatureF,Dew PointF,Humidity,Sea Level PressureIn,VisibilityMPH,Wind Direction,Wind SpeedMPH,Gust SpeedMPH,PrecipitationIn,Events,Conditions,WindDirDegrees,DateUTC
12:54 AM,37.9,25.0,60,30.30,10.0,NE,3.5,-,N/A,,Overcast,50,2013-10-30 04:54:00
1:54 AM,37.0,24.1,59,30.29,10.0,ENE,3.5,-,N/A,,Overcast,60,2013-10-30 05:54:00
2:54 AM,37.0,27.0,67,30.28,10.0,Calm,Calm,-,0.00,Rain,Light Rain,0,2013-10-30 06:54:00
3:54 AM,37.0,28.9,73,30.27,10.0,Calm,Calm,-,0.00,,Overcast,0,2013-10-30 07:54:00
4:54 AM,36.0,30.0,79,30.28,10.0,Calm,Calm,-,0.01,Rain,Light Rain,0,2013-10-30 08:54:00
5:54 AM,36.0,33.1,89,30.27,10.0,ESE,4.6,-,0.01,,Overcast,110,2013-10-30 09:54:00
6:54 AM,36.0,34.0,93,30.27,10.0,East,3.5,-,0.00,,Overcast,100,2013-10-30 10:54:00
7:54 AM,36.0,34.0,93,30.27,10.0,East,3.5,-,0.00,,Overcast,100,2013-10-30 11:54:00
8:54 AM,37.0,34.0,89,30.28,10.0,Calm,Calm,-,N/A,,Overcast,0,2013-10-30 12:54:00
9:54 AM,37.9,35.1,89,30.29,10.0,ENE,3.5,-,N/A,,Overcast,70,2013-10-30 13:54:00
10:54 AM,42.1,37.9,85,30.28,10.0,Calm,Calm,-,N/A,,Overcast,0,2013-10-30 14:54:00
11:54 AM,46.0,39.0,76,30.27,10.0,Calm,Calm,-,N/A,,Overcast,0,2013-10-30 15:54:00
12:54 PM,48.9,39.9,71,30.24,10.0,Calm,Calm,-,N/A,,Overcast,0,2013-10-30 16:54:00
1:54 PM,51.1,37.9,61,30.22,10.0,Calm,Calm,-,N/A,,Mostly Cloudy,0,2013-10-30 17:54:00
2:54 PM,54.0,39.0,57,30.20,10.0,North,4.6,-,N/A,,Scattered Clouds,360,2013-10-30 18:54:00
3:54 PM,54.0,39.0,57,30.19,10.0,Calm,Calm,-,N/A,,Scattered Clouds,0,2013-10-30 19:54:00
4:54 PM,52.0,39.0,61,30.18,10.0,ENE,4.6,-,N/A,,Partly Cloudy,60,2013-10-30 20:54:00
5:54 PM,48.0,37.9,68,30.19,10.0,ENE,4.6,-,N/A,,Scattered Clouds,60,2013-10-30 21:54:00
6:54 PM,46.9,37.9,71,30.19,10.0,East,3.5,-,N/A,,Mostly Cloudy,80,2013-10-30 22:54:00
7:54 PM,44.1,37.0,76,30.20,10.0,East,3.5,-,N/A,,Mostly Cloudy,90,2013-10-30 23:54:00
8:54 PM,43.0,36.0,76,30.18,10.0,East,4.6,-,N/A,,Mostly Cloudy,80,2013-10-31 00:54:00
9:54 PM,39.0,35.1,86,30.18,10.0,East,3.5,-,N/A,,Mostly Cloudy,100,2013-10-31 01:54:00
10:54 PM,39.9,36.0,86,30.18,10.0,East,4.6,-,N/A,,Scattered Clouds,90,2013-10-31 02:54:00
11:54 PM,37.9,35.1,89,30.16,10.0,East,6.9,-,N/A,,Mostly Cloudy,90,2013-10-31 03:54:00